Погода в Эль-Кусейре

Египет     26°06′43″N   34°16′16″E
В апреле 2022 года жителям России запретили посещать сайт meteo.paraplan.net по решению Генеральной прокуратуры. Аудитория сайта уменьшилась в 10 раз. Владельцы сайта не видят смысла в поддержке погодного сервера в таких условиях. Сайт будет закрыт в октябре.
темп.,
°C
ветер,
м/с
пор.,
м/с
влажн.,
%
обл.,
%
осадки,
мм/ч
давл.,
гПа
погр.,
м
30 сентября, пт
пт3023:00+29з22280 0.0 100811
02:00+29сз34310 0.0 100834
05:00+28с915510 0.0 1009343
08:00+30с78490 0.0 1012544
11:00+33ссв88380 0.0 1011752
14:00+34с76280 0.0 1009703
17:00+33с45280 0.0 1009129
20:00+30з11290 0.0 101011
1 октября, сб
сб123:00+30з22260 0.0 101011
02:00+29ссз915480 0.0 1010298
05:00+28ссз510510 0.0 1012173
08:00+31с79390 0.0 1013551
11:00+33с89340 0.0 1013683
14:00+35с99260 0.0 1010789
17:00+34с46230 0.0 1008144
20:00+31зсз33240 0.0 100912
2 октября, вс
вс223:00+31зсз33230 0.0 100813
02:00+29ссз46310 0.0 100867
05:00+27ссз57460 0.0 1009104
08:00+31с79350 0.0 1009472
11:00+34с76300 0.0 1008701
14:00+35ссв54290 0.0 1006772
17:00+31св22390 0.0 1005180
20:00+30зсз22360 0.0 100612
3 октября, пн
пн323:00+29зсз22310 0.0 100512
02:00+28зюз11310 0.0 100511
05:00+27сз11330 0.0 100511
08:00+32с58330 0.0 1006525
11:00+35ссв76250 0.0 1006854
14:00+34св65280 0.0 1004500
17:00+32всв22350 0.0 1004159
20:00+28ссз11420 0.0 100611
4 октября, вт
вт423:00+28ссз23390 0.0 100613
02:00+27ююз11350 0.0 100611
05:00+26з01420 0.0 100629
08:00+30с57370 0.0 1008508
11:00+32ссв65410 0.0 1009782
14:00+31св54440 0.0 1007501
17:00+29ссв33550 0.0 1008295
20:00+26с11640 0.0 101028